Torna al catalogo

STARLINK-5483

AttivoComunicazioniVLEO
NORAD 55643·PAYLOAD·🇺🇸 United States

Lanciato Feb 17, 2023 da Vandenberg Space Force Base

Loading…

Prossimi Passaggi (prossime 24 ore)

TLE

AggiornatoSource: CelesTrak SupGP

Epoca: Sep 15, 2026, 01:53 UTC

1 55643C 23021R   26258.07895833 -.00053666  00000+0 -44982-2 0  2581
2 55643  70.0006  67.1181 0002889 270.1754 154.8134 14.98351090    12

Traccia STARLINK-5483 in tempo reale con AllMySat

Download on the App Store